User: anonymous   Login
Location: Franzen
(48.6167°N, 15.3833°E)
Time: 23:26:34
(UTC+00:00)
Language:

Cosmos 1244 Rocket - Orbit

View from above orbital plane
View from above orbital plane
View from above satellite
View from above satellite

Ground track
Ground track

The orbit data is extracted from the following two-line orbital elements,

1 12298U 81013B   21174.54868020  .00000069  00000-0  54465-4 0  9996
2 12298  82.9487 319.7849 0031226 104.6988 301.2767 13.76650509 26874
Epoch (UTC): 23 June 2021 13:10:05
Eccentricity: 0.0031226
inclination: 82.9487°
perigee height: 953 km
apogee height: 999 km
right ascension of ascending node: 319.7849°
argument of perigee: 104.6988°
revolutions per day: 13.76650509
mean anomaly at epoch: 301.2767°
orbit number at epoch: 2687

The dashed part of the orbit path shows where the satellite is in the earth's shadow,  

DLR